Location: Grust
(42.8833°N, 0.0333°W)
Time: 14:09:53
(UTC+00:00)

GRACE-FO 1 - Pass Details

Date: 25 October 2020
Orbit: 481 x 505 km, 89.0° (Epoch: 25 November)

Event Time Altitude Azimuth Distance (km) Brightness Sun altitude
Rises 17:26:54 0° 2° (N) 2,556 8.1 -5.3°
Reaches altitude 10° 17:29:00 10° 4° (N) 1,670 7.1 -5.7°
Maximum altitude 17:32:37 74° 90° (E) 505 4.5 -6.3°
Drops below altitude 10° 17:36:12 10° 176° (S) 1,655 7.4 -7.0°
Sets 17:38:16 0° 178° (S) 2,531 8.3 -7.4°
